1282006228571,0.000142523
1282006288571,0.000143357
1282006348571,0.000142914
1282006408571,0.000141481
1282006468571,0.000143283
1282009828580,0.000142772
1282009888580,0.000143469
1282009948580,0.000142011
1282010008580,0.000142409
1282010068580,0.000143113
1282013428589,0.000141876
1282013488589,0.000142209
1282013548589,0.000142269
1282013608589,0.000142493
1282013668589,0.000141677
1282017028598,0.000143037
1282017088598,0.000143478
1282017148598,0.000142137
1282017208598,0.000142370
1282017268598,0.000142080
1282020628607,0.000142327
1282020688607,0.000142736
1282020748607,0.000141862
1282020808607,0.000144076
1282020868607,0.000142560
1282024228615,0.000142382
1282024288615,0.000142493
1282024348615,0.000142095
1282024408615,0.000142132
1282024468615,0.000143184
1282024528615,0.000141501
1282024588615,0.000141638
1282024648615,0.000141141
1282024708615,0.000141445
1282024768615,0.000142063
1282024828624,0.000141659
1282024888624,0.000142184
1282024948624,0.000142715
1282025008624,0.000142038
1282025068624,0.000141769
1282025128624,0.000142542
1282025188624,0.000140856
1282025248624,0.000140770
1282025308624,0.000141252
1282025368624,0.000141135
1282025428624,0.000141737
1282025488624,0.000141541
1282025548624,0.000140426
1282025608624,0.000141407
1282025668624,0.000140012
1282025728624,0.000140322
1282025788624,0.000140174
1282025848624,0.000141019
1282025908624,0.000140666
1282025968624,0.000142452
1282026028624,0.000141095
1282026088624,0.000142393
1282026148624,0.000141948
1282026208624,0.000141101
1282026268624,0.000141715
1282026328624,0.000141273
1282026388624,0.000141315
1282026448624,0.000140591
1282026508624,0.000141092
1282026568624,0.000140616
1282026628624,0.000139806
1282026688624,0.000140878
1282026748624,0.000141259
1282026808624,0.000140773
1282026868624,0.000140680
1282026928624,0.000141019
1282026988624,0.000139318
1282027048624,0.000140585
1282027108624,0.000141080
1282027168624,0.000140040
1282027228624,0.000141265
1282027288624,0.000139406
1282027348624,0.000140664
1282027408624,0.000140772
1282027468624,0.000141164
1282027528624,0.000141034
1282027588624,0.000140465
1282027648624,0.000141165
1282027708624,0.000140706
1282027768624,0.000139926
1282027828624,0.000140595
1282027888624,0.000140895
1282027948624,0.000140023
1282028008624,0.000140044
1282028068624,0.000139006
1282028128624,0.000139566
1282028188624,0.000140296
1282028248624,0.000140881
1282028308624,0.000140569
1282028368624,0.000139868
1282028428632,0.000140783
1282028488632,0.000139486
1282028548632,0.000140406
1282028608632,0.000139921
1282028668632,0.000140601
1282028728632,0.000139731
1282028788632,0.000142178
1282028848632,0.000140296
1282028908632,0.000139966
1282028968632,0.000140953
1282029028632,0.000140234
1282029088632,0.000140646
1282029148632,0.000139405
1282029208632,0.000139613
1282029268632,0.000139906
1282029328632,0.000140182
1282029388632,0.000140427
1282029448632,0.000139733
1282029508632,0.000139938
1282029568632,0.000139040
1282029628632,0.000139859
1282029688632,0.000140213
1282029748632,0.000138942
1282029808632,0.000141233
1282029868632,0.000139031
1282029928632,0.000140090
1282029988632,0.000140557
1282030048632,0.000139873
1282030108632,0.000140131
1282030168632,0.000140168
1282030228632,0.000140165
1282030288632,0.000140097
1282030348632,0.000139465
1282030408632,0.000139641
1282030468632,0.000141087
1282030528632,0.000139622
1282030588632,0.000140886
1282030648632,0.000139229
1282030708632,0.000139894
1282030768632,0.000140189
1282030828632,0.000140593
1282030888632,0.000140040
1282030948632,0.000139905
1282031008632,0.000140519
1282031068632,0.000139936
1282031128632,0.000140636
1282031188632,0.000140557
1282031248632,0.000140001
1282031308632,0.000140979
1282031368632,0.000140648
1282031428632,0.000140460
1282031488632,0.000140629
1282031548632,0.000139678
1282031608632,0.000140305
1282031668632,0.000139976
1282031728632,0.000139191
1282031788632,0.000139136
1282031848632,0.000140357
1282031908632,0.000140409
1282031968632,0.000139053
1282032028641,0.000140573
1282032088641,0.000140127
1282032148641,0.000139712
1282032208641,0.000139718
1282032268641,0.000139553
1282032328641,0.000139608
1282032388641,0.000139133
1282032448641,0.000139760
1282032508641,0.000138379
1282032568641,0.000140779
1282032628641,0.000138855
1282032688641,0.000139293
1282032748641,0.000139962
1282032808641,0.000138918
1282032868641,0.000139954
1282032928641,0.000139247
1282032988641,0.000139983
1282033048641,0.000140252
1282033108641,0.000140453
1282033168641,0.000139605
1282033228641,0.000140171
1282033288641,0.000139734
1282033348641,0.000140260
1282033408641,0.000140592
1282033468641,0.000140077
1282033528641,0.000139226
1282033588641,0.000139618
1282033648641,0.000138906
1282033708641,0.000140085
1282033768641,0.000140564
1282033828641,0.000139456
1282033888641,0.000140734
1282033948641,0.000139739
1282034008641,0.000139513
1282034068641,0.000138850
1282034128641,0.000141663
1282034188641,0.000139928
1282034248641,0.000139665
1282034308641,0.000139776
1282034368641,0.000140236
1282034428641,0.000139775
1282034488641,0.000140680
1282034548641,0.000140218
1282034608641,0.000139859
1282034668641,0.000139410
1282034728641,0.000140436
1282034788641,0.000139124
1282034848641,0.000140212
1282034908641,0.000140063
1282034968641,0.000140431
1282035028641,0.000139923
1282035088641,0.000139280
1282035148641,0.000139616
1282035208641,0.000138603
1282035268641,0.000139158
1282038628649,0.000140815
1282038688649,0.000140728
1282038748649,0.000140495
1282038808649,0.000141592
1282038868649,0.000140590
1282042228658,0.000140282
1282042288658,0.000140204
1282042348658,0.000139250
1282042408658,0.000139810
1282042468658,0.000139159
1282045828666,0.000138027
1282045888666,0.000139464
1282045948666,0.000139468
1282046008666,0.000139217
1282046068666,0.000141243
1282049428675,0.000138736
1282049488675,0.000139963
1282049548675,0.000138710
1282049608675,0.000139580
1282049668675,0.000138148
1282053028684,0.000137869
1282053088684,0.000139502
1282053148684,0.000138974
1282053208684,0.000138439
1282053268684,0.000139891
1282056628693,0.000139988
1282056688693,0.000139350
1282056748693,0.000139238
1282056808693,0.000138972
1282056868693,0.000140095
1282060228703,0.000138338
1282060288703,0.000138744
1282060348703,0.000137577
1282060408703,0.000138868
1282060468703,0.000138725
1282063828712,0.000139976
1282063888712,0.000139831
1282063948712,0.000139885
1282064008712,0.000139142
1282064068712,0.000140515
1282067428722,0.000139784
1282067488722,0.000141221
1282067548722,0.000141342
1282067608722,0.000140692
1282067668722,0.000139741
1282071028732,0.000140547
1282071088732,0.000140702
1282071148732,0.000140064
1282071208732,0.000139811
1282071268732,0.000140521
1282074628743,0.000139384
1282074688743,0.000139456
1282074748743,0.000139177
1282074808743,0.000140214
1282074868743,0.000140298
1282078228753,0.000142146
1282078288753,0.000142793
1282078348753,0.000141247
1282078408753,0.000141069
1282078468753,0.000141287
1282081828763,0.000141372
1282081888763,0.000140438
1282081948763,0.000141274
1282082008763,0.000140061
1282082068763,0.000140097
1282085428773,0.000141158
1282085488773,0.000140741
1282085548773,0.000140858
1282085608773,0.000140850
1282085668773,0.000139961
1282089028782,0.000142570
1282089088782,0.000141453
1282089148782,0.000141707
1282089208782,0.000141430
1282089268782,0.000141417
